[[{"header":{"parameterUnit":"m.s-1","parameterCategory":1,"la1":30.2991,"la2":30.254,"lo1":-89.0895,"lo2":-89.0444,"dy":0.0017,"dx":0.0017,"nx":28,"ny":28,"refTime":"2024-05-14T03:00:00:Z","depth":0,"parameterNumber":2,"parameterNumberName":"U-component_of_WINDS"},"data":[0,0,0,0,0,0,0,0,0,0,0,0,0,0,0,0,0,0,0,0,0,0,0,0,0,0,0,0,0,0,0,0,0,0,0,0,0,0,0,0,0,0,0,0,0,0,0,0,0,0,0,0,0,0,0,0,0,0,1.8252,1.8253,0,1.8325,1.8326,1.8326,1.8309,1.8308,1.8306,1.8305,1.8386,1.8389,1.8393,0,0,0,0,0,0,0,0,0,0,0,0,0,1.8105,1.8108,1.8252,1.8253,1.8253,1.8325,1.8326,1.8327,1.8309,1.8307,1.8306,1.8304,1.8385,1.8389,1.8393,0,0,0,0,0,0,0,0,0,0,0,0,0,1.8173,1.8109,1.8252,1.8253,1.8254,1.8324,1.8326,1.8327,1.831,1.8307,1.8305,1.8303,1.8383,1.8388,1.8394,1.8469,0,0,1.841,1.8412,0,0,0,0,0,0,0,0,1.8169,1.8178,1.8252,1.8253,1.8254,1.8305,1.8304,1.8375,1.831,1.8289,1.8305,1.8302,1.8361,1.8368,1.8387,1.8473,1.8476,1.841,1.8413,1.8416,1.8417,0,0,0,0,0,0,0,1.8164,1.8175,1.8281,1.8253,1.8255,1.8253,1.826,1.8317,1.8336,1.829,1.8289,1.8298,1.8362,1.8382,1.8389,1.8477,1.841,1.8415,1.8418,1.842,1.8634,1.8636,0,0,0,0,0,0,1.8158,1.8171,1.8278,1.8283,1.8205,1.8257,1.8266,1.8291,1.8336,1.834,1.83,1.8297,1.8374,1.8382,1.8391,1.8485,1.8415,1.842,1.8423,1.8631,1.8634,1.8637,0,0,0,0,0,0,1.8155,1.8167,1.8276,1.8227,1.824,1.8262,1.8291,1.8294,1.8314,1.8342,1.8347,1.8316,1.8373,1.8384,1.845,1.8488,1.8423,1.8427,1.8628,1.8632,1.8636,1.8672,0,0,0,0,0,0,1.8151,1.8166,1.8193,1.8227,1.8243,1.8331,1.8294,1.8297,1.8322,1.8319,1.8359,1.8364,1.8372,1.8443,1.8456,1.8494,1.8432,1.8625,1.863,1.8634,1.8668,1.8677,1.8684,0,0,0,0,0,1.8145,1.8201,1.8194,1.8207,1.8276,1.8333,1.8342,1.8348,1.8325,1.8354,1.8373,1.8363,1.8481,1.845,1.8464,1.8504,1.8623,1.8629,1.8634,1.8664,1.8675,1.8684,0,0,0,0,0,0,1.8171,1.8205,1.8198,1.8266,1.8296,1.8329,1.8365,1.8359,1.8398,1.8394,1.8402,1.8411,1.848,1.8499,1.8462,1.8582,1.8549,1.8558,1.8567,1.8578,1.8586,1.8581,1.8436,0,0,0,0,0,1.8184,1.8225,1.8253,1.831,1.8326,1.8343,1.8368,1.837,1.8403,1.8416,1.844,1.8474,1.852,1.855,1.8593,1.867,1.8681,1.8706,1.8714,1.8721,1.8729,1.8776,1.8788,1.8656,1.8656,1.8656,0,0,1.8212,1.8236,1.8261,1.8316,1.834,1.8385,1.8354,1.8402,1.8437,1.8424,1.8489,1.8508,1.8547,1.862,1.8654,1.8638,1.8768,1.8728,1.8733,1.8738,1.8783,1.8796,1.8807,1.866,1.8659,1.8658,0,0,1.8287,1.8308,1.8359,1.8384,1.842,1.8432,1.8445,1.848,1.8492,1.8556,1.8549,1.8592,1.8669,1.8698,1.8723,1.8813,1.8807,1.8827,1.8872,1.8917,1.8928,1.8937,1.8973,1.8985,1.8835,1.8835,1.8835,0,1.8318,1.8383,1.8387,1.8436,1.8463,1.8453,1.8507,1.8532,1.8582,1.8601,1.8583,1.8682,1.8707,1.8789,1.8812,1.8831,1.8849,1.8823,1.8925,1.8935,1.8944,1.8978,1.8991,1.8838,1.8837,1.8837,1.8837,0,1.8421,1.8467,1.8504,1.8552,1.8582,1.8634,1.8649,1.868,1.8681,1.8696,1.8764,1.8795,1.8846,1.8865,1.8866,1.8949,1.8939,1.8923,1.889,1.8959,1.8991,1.9004,1.8841,1.884,1.884,1.8839,0,0,1.8512,1.8563,1.8577,1.86,1.8641,1.8678,1.8732,1.878,1.8808,1.8844,1.8892,1.8959,1.8945,1.8974,1.8979,1.9019,1.9093,1.8999,1.9,1.9018,1.9191,1.9204,1.9219,1.9089,1.9091,1.9093,1.9189,0,1.8593,1.8684,1.8691,1.8775,1.882,1.8813,1.886,1.8893,1.8909,1.8952,1.8971,1.9019,1.8996,1.9014,1.9053,1.9076,1.9128,1.9069,1.9137,1.9139,1.9128,1.9235,1.9248,1.9336,1.9201,1.9203,1.9204,0,1.8698,1.8736,1.8824,1.8863,1.8882,1.8924,1.8971,1.9011,1.905,1.9059,1.9093,1.9093,1.9153,1.9117,1.9201,1.9161,1.9189,1.9205,1.9209,1.9217,1.9177,1.9248,1.9364,1.9378,1.9224,1.9222,1.9221,0,1.8759,1.8833,1.8896,1.8916,1.8962,1.8992,1.9013,1.9049,1.9079,1.9122,1.9142,1.9192,1.9219,1.9259,1.9275,1.9247,1.936,1.9325,1.9373,1.9372,1.9397,1.9396,1.9522,1.9412,1.9412,1.9412,1.9412,0,1.8849,1.8904,1.8925,1.8964,1.9027,1.9036,1.9099,1.9119,1.9152,1.9198,1.9196,1.9239,1.9256,1.9304,1.9317,1.9387,1.9399,1.9411,1.9414,1.9412,1.9411,1.9432,1.9427,1.9415,1.9415,1.9414,1.9413,0,1.8928,1.8943,1.9013,1.9051,1.9062,1.9107,1.9142,1.9182,1.9198,1.9256,1.9271,1.9298,1.9354,1.9374,1.9442,1.9451,1.9533,1.953,1.952,1.9521,1.9569,1.9565,1.9714,1.9736,1.961,1.9611,1.9612,0,1.8985,1.9027,1.907,1.91,1.9122,1.917,1.9201,1.9213,1.9246,1.9296,1.9331,1.9386,1.9431,1.9522,1.955,1.9604,1.9604,1.9652,1.9612,1.961,1.9608,1.9606,1.9612,1.966,1.9662,1.9663,1.9664,0,1.9085,1.9092,1.9135,1.9183,1.922,1.9259,1.9296,1.9321,1.934,1.9378,1.9435,1.947,1.9541,1.9597,1.9653,1.9678,1.9676,1.9676,1.9691,1.969,1.9683,1.9691,1.9543,1.9673,1.9672,1.9671,1.9671,1.967,1.9157,1.9196,1.9233,1.9283,1.9313,1.9349,1.9389,1.9411,1.9458,1.9515,1.9521,1.9583,1.9626,1.97,1.9728,1.978,1.9766,1.9786,1.9792,1.9797,1.9802,1.9674,1.9789,1.9789,1.9789,1.9789,1.9789,0,1.926,1.9284,1.933,1.9382,1.9423,1.9415,1.9458,1.9493,1.9547,1.9586,1.9631,1.9699,1.9755,1.9788,1.9845,1.9881,1.9882,1.9896,1.9894,1.9901,1.9809,1.9792,1.9894,1.9894,1.9894,1.9894,1.9894,1.9894,1.9318,1.9384,1.9396,1.9479,1.9503,1.9563,1.9589,1.9623,1.9655,1.973,1.9776,1.9797,1.9835,1.9896,1.9948,1.9957,1.998,1.9996,2.0004,1.9918,1.9907,1.9897,1.9881,2.0,2.0,2.0092,2.0092,2.0093]},{"header":{"parameterUnit":"m.s-1","parameterCategory":1,"la1":30.2991,"la2":30.254,"lo1":-89.0895,"lo2":-89.0444,"dy":0.0017,"dx":0.0017,"nx":28,"ny":28,"refTime":"2024-05-14T03:00:00:Z","depth":0,"parameterNumber":3,"parameterNumberName":"V-component_of_WINDS"},"data":[0,0,0,0,0,0,0,0,0,0,0,0,0,0,0,0,0,0,0,0,0,0,0,0,0,0,0,0,0,0,0,0,0,0,0,0,0,0,0,0,0,0,0,0,0,0,0,0,0,0,0,0,0,0,0,0,0,0,-1.3019,-1.3016,0,-1.2779,-1.2776,-1.2774,-1.2734,-1.2736,-1.2738,-1.274,-1.2483,-1.2475,-1.2466,0,0,0,0,0,0,0,0,0,0,0,0,0,-1.3428,-1.3421,-1.3019,-1.3016,-1.3013,-1.278,-1.2776,-1.2773,-1.2734,-1.2736,-1.2739,-1.2741,-1.2486,-1.2476,-1.2465,0,0,0,0,0,0,0,0,0,0,0,0,0,-1.3226,-1.3419,-1.3019,-1.2965,-1.2958,-1.278,-1.2776,-1.2772,-1.2733,-1.2736,-1.274,-1.2743,-1.249,-1.2477,-1.2464,-1.2319,0,0,-1.2423,-1.2418,0,0,0,0,0,0,0,0,-1.3237,-1.321,-1.2976,-1.2969,-1.296,-1.279,-1.2826,-1.262,-1.2732,-1.2818,-1.274,-1.2744,-1.2582,-1.2561,-1.2509,-1.2307,-1.2296,-1.2422,-1.2414,-1.2409,-1.2405,0,0,0,0,0,0,0,-1.3251,-1.322,-1.2924,-1.2973,-1.2963,-1.2949,-1.2923,-1.2787,-1.2685,-1.2811,-1.2808,-1.2781,-1.2578,-1.2522,-1.2503,-1.2292,-1.2423,-1.2411,-1.2403,-1.2398,-1.1953,-1.1949,0,0,0,0,0,0,-1.3277,-1.3233,-1.2931,-1.2916,-1.311,-1.2939,-1.291,-1.2841,-1.2686,-1.2666,-1.2778,-1.278,-1.2543,-1.2518,-1.2494,-1.231,-1.2409,-1.2396,-1.2389,-1.1957,-1.1952,-1.1948,0,0,0,0,0,0,-1.3286,-1.325,-1.2941,-1.3073,-1.3033,-1.2928,-1.2851,-1.2835,-1.2779,-1.2662,-1.2642,-1.274,-1.2545,-1.2512,-1.2362,-1.23,-1.239,-1.2378,-1.1961,-1.1955,-1.195,-1.1944,0,0,0,0,0,0,-1.3298,-1.3254,-1.3201,-1.3073,-1.3026,-1.2818,-1.2847,-1.2828,-1.2758,-1.2757,-1.2621,-1.2601,-1.2545,-1.2382,-1.2349,-1.2284,-1.2368,-1.1966,-1.1959,-1.1952,-1.1949,-1.1939,-1.193,0,0,0,0,0,-1.3312,-1.3208,-1.3199,-1.3163,-1.2959,-1.2815,-1.2787,-1.2728,-1.2753,-1.2696,-1.262,-1.2606,-1.2314,-1.2367,-1.233,-1.2259,-1.197,-1.1961,-1.1952,-1.1953,-1.1941,-1.193,0,0,0,0,0,0,-1.3328,-1.319,-1.3179,-1.303,-1.2935,-1.2808,-1.2736,-1.2717,-1.2609,-1.2613,-1.2539,-1.2509,-1.2361,-1.2296,-1.2358,-1.2108,-1.2143,-1.2126,-1.2157,-1.2143,-1.2134,-1.2151,-1.2357,0,0,0,0,0,-1.3315,-1.3214,-1.3097,-1.2976,-1.293,-1.2841,-1.2776,-1.2738,-1.2634,-1.2593,-1.2506,-1.2403,-1.2287,-1.2212,-1.2099,-1.194,-1.1906,-1.1873,-1.1863,-1.1856,-1.1841,-1.1746,-1.1728,-1.1919,-1.1919,-1.1919,0,0,-1.3286,-1.3197,-1.3137,-1.2977,-1.2899,-1.279,-1.2807,-1.2693,-1.2609,-1.2574,-1.2427,-1.236,-1.2239,-1.2082,-1.2009,-1.2023,-1.1781,-1.1845,-1.184,-1.1828,-1.1735,-1.1717,-1.1701,-1.1913,-1.1914,-1.1915,0,0,-1.3176,-1.3101,-1.2991,-1.2912,-1.2794,-1.2736,-1.2709,-1.2585,-1.2539,-1.2392,-1.2361,-1.2259,-1.2064,-1.1977,-1.1908,-1.1762,-1.1742,-1.1727,-1.1675,-1.1583,-1.1568,-1.1554,-1.1497,-1.1478,-1.1714,-1.1714,-1.1714,0,-1.3152,-1.2992,-1.2936,-1.2821,-1.2749,-1.2716,-1.26,-1.2525,-1.2375,-1.2323,-1.2343,-1.2093,-1.201,-1.183,-1.1795,-1.1741,-1.1704,-1.1741,-1.1576,-1.1561,-1.1547,-1.1492,-1.1471,-1.1712,-1.1712,-1.1713,-1.1713,0,-1.2967,-1.2855,-1.278,-1.2638,-1.2558,-1.2444,-1.2365,-1.229,-1.2258,-1.2196,-1.2042,-1.1942,-1.1806,-1.1761,-1.1729,-1.1575,-1.1586,-1.1592,-1.1624,-1.1529,-1.1475,-1.1454,-1.171,-1.1711,-1.1711,-1.1712,0,0,-1.2859,-1.2688,-1.266,-1.2594,-1.246,-1.237,-1.2252,-1.2123,-1.2057,-1.1954,-1.1849,-1.1683,-1.1686,-1.1607,-1.1564,-1.1484,-1.1369,-1.1498,-1.1494,-1.1473,-1.1186,-1.118,-1.1157,-1.1356,-1.1352,-1.1349,-1.1195,0,-1.273,-1.2522,-1.2467,-1.2288,-1.2181,-1.2147,-1.2043,-1.1946,-1.1885,-1.1781,-1.1711,-1.1592,-1.1608,-1.156,-1.148,-1.14,-1.1309,-1.1411,-1.1252,-1.1247,-1.1279,-1.113,-1.1124,-1.0983,-1.1174,-1.1171,-1.1168,0,-1.2551,-1.2447,-1.2259,-1.2136,-1.2088,-1.1997,-1.1871,-1.1775,-1.1663,-1.1623,-1.1534,-1.1498,-1.1367,-1.141,-1.1225,-1.1296,-1.1227,-1.1178,-1.1171,-1.115,-1.1199,-1.11,-1.0938,-1.0915,-1.1135,-1.1138,-1.114,0,-1.2485,-1.2298,-1.216,-1.2105,-1.1959,-1.1894,-1.1829,-1.1721,-1.1646,-1.1534,-1.1483,-1.1358,-1.1288,-1.1189,-1.1117,-1.1156,-1.0937,-1.0975,-1.0894,-1.0896,-1.0847,-1.085,-1.0666,-1.0811,-1.0811,-1.0811,-1.0812,0,-1.2344,-1.2229,-1.2128,-1.2043,-1.1911,-1.1846,-1.1715,-1.1649,-1.1552,-1.1449,-1.1411,-1.1314,-1.1229,-1.1118,-1.1061,-1.0914,-1.0884,-1.0843,-1.0828,-1.0844,-1.0848,-1.0795,-1.0801,-1.0806,-1.0807,-1.0808,-1.0809,0,-1.2247,-1.2176,-1.2022,-1.1897,-1.1863,-1.177,-1.1661,-1.1573,-1.1511,-1.138,-1.1345,-1.1244,-1.1112,-1.1033,-1.0865,-1.0827,-1.0662,-1.0654,-1.0701,-1.0693,-1.0616,-1.0622,-1.0387,-1.0351,-1.0525,-1.0523,-1.0522,0,-1.216,-1.2071,-1.1936,-1.1867,-1.1802,-1.169,-1.1613,-1.1544,-1.1464,-1.1329,-1.1256,-1.1123,-1.1012,-1.0802,-1.071,-1.058,-1.0565,-1.0492,-1.0545,-1.0562,-1.0557,-1.0562,-1.055,-1.0481,-1.048,-1.0479,-1.0478,0,-1.2011,-1.1979,-1.1872,-1.1751,-1.1661,-1.1561,-1.1461,-1.1405,-1.1319,-1.123,-1.1096,-1.1011,-1.084,-1.0705,-1.0567,-1.0495,-1.0468,-1.0462,-1.0436,-1.0448,-1.0477,-1.0455,-1.0671,-1.0467,-1.0468,-1.0469,-1.0469,-1.047,-1.1912,-1.1829,-1.1721,-1.1601,-1.152,-1.1427,-1.1338,-1.1264,-1.1153,-1.1011,-1.0976,-1.0834,-1.0719,-1.0532,-1.0457,-1.0341,-1.0352,-1.0315,-1.0304,-1.0295,-1.0291,-1.05,-1.0316,-1.0316,-1.0316,-1.0317,-1.0317,0,-1.1756,-1.1685,-1.1576,-1.1439,-1.1343,-1.1333,-1.1221,-1.1139,-1.1017,-1.0914,-1.0806,-1.065,-1.0518,-1.0417,-1.0281,-1.0207,-1.0191,-1.0173,-1.0175,-1.0158,-1.0291,-1.0326,-1.0188,-1.0188,-1.0188,-1.0188,-1.0188,-1.0188,-1.1664,-1.1522,-1.1477,-1.1292,-1.122,-1.1084,-1.102,-1.0932,-1.085,-1.0678,-1.057,-1.0507,-1.0402,-1.0257,-1.0134,-1.0107,-1.0056,-1.0039,-1.0009,-1.0135,-1.0149,-1.0162,-1.0194,-1.003,-1.003,-0.9884,-0.9883,-0.9882]}]]